Location: Chaumargeais
(45.0901°N, 4.3440°E)
Time: 03:19:48
(UTC+00:00)

Daily predictions for brighter satellites

Satellite Brightness Start Highest point End
(mag) Time Altitude Azimuth Time Altitude Azimuth Time Altitude Azimuth
ATLAS 2AS CENTAUR R/B 4.2 01:50:45 36° E 01:50:45 36° E 01:56:03 10° NE
Cosmos 2237 Rocket 4.2 02:20:04 24° ENE 02:20:04 24° ENE 02:23:06 10° NE
USA 267 4.3 02:17:43 10° ENE 02:22:20 38° E 02:22:20 38° E
NOSS 3-2 (C) 4.4 02:44:12 56° SE 02:44:12 56° SE 02:50:35 10° SE
IDEFIX/ARIANE 42P 4.3 02:39:08 10° NE 02:43:37 29° E 02:43:37 29° E
COSMOS 2428 4.4 02:47:55 27° NNE 02:47:55 27° NNE 02:50:23 10° NNE
COSMOS 2455 4.5 02:57:25 25° N 02:57:25 25° N 03:00:15 10° NNE
USA 234 3.8 02:51:59 10° E 02:58:15 51° NNE 02:59:22 46° N
NOSS 3-4 (A) 3.8 02:59:59 59° ENE 02:59:59 59° ENE 03:05:20 10° NE
NOSS 3-4 (C) 3.8 03:00:03 60° ENE 03:00:03 60° ENE 03:05:27 10° NE
ATLAS 3B R/B 2.6 03:06:13 78° E 03:06:13 78° E 03:12:48 10° SE
CENTAUR R/B 3.0 03:11:14 58° NW 03:13:11 86° SW 03:21:55 10° SSE
SL-16 R/B 3.8 03:11:16 18° SSE 03:14:26 31° ESE 03:19:21 10° NE
Cosmos 1140 Rocket 4.1 03:17:26 52° E 03:17:26 52° E 03:22:20 10° NNE
Cosmos 2074 Rocket 4.2 03:15:53 41° SSE 03:18:01 65° E 03:24:10 10° NNE
H-2A R/B 4.3 03:14:29 10° NE 03:18:16 30° E 03:19:16 27° ESE
USA 32 4.3 03:26:06 62° NNE 03:26:06 62° NNE 03:30:32 10° N
ADEOS 3.6 03:31:01 10° NNE 03:36:17 79° ESE 03:36:55 67° SSE
CZ-2C R/B 4.0 03:31:32 10° NNE 03:36:18 36° E 03:40:58 10° SSE
Cosmos 1606 Rocket 4.3 03:32:08 10° N 03:36:21 50° ENE 03:40:34 10° SSE
BREEZE-M DEB (TANK) 3.4 03:38:42 41° NE 03:38:42 41° NE 03:40:32 10° ENE
Cosmos 2333 Rocket 3.5 03:39:58 26° NNW 03:39:58 26° NNW 03:43:14 10° N
MSX 4.3 03:32:40 10° NNE 03:38:22 59° ESE 03:43:59 10° S
ATLAS 2AS CENTAUR R/B 3.1 03:38:13 52° W 03:39:31 58° NW 03:47:26 10° NNE
RESURS DK-1 2.9 03:43:35 56° E 03:43:35 56° E 03:47:19 10° NE
Cosmos 2219 Rocket 3.6 03:47:50 24° NNW 03:47:50 24° NNW 03:50:57 10° N
Meteor 1-4 Rocket 4.5 03:50:31 22° NNE 03:50:31 22° NNE 03:51:52 10° NNE
Cosmos 1023 Rocket 4.3 03:49:30 78° WSW 03:49:44 80° WNW 03:54:53 10° NNE
ADEOS II 4.3 03:55:29 10° NNW 03:56:02 12° NNW 03:56:02 12° NNW
Cosmos 2228 3.0 03:56:05 10° N 04:00:21 78° E 04:04:35 10° SSE
Cosmos 2237 Rocket 2.4 04:01:56 46° WNW 04:02:05 46° WNW 04:07:35 10° NNE
Cosmos 1726 3.2 03:59:32 10° N 04:03:04 45° ENE 04:06:37 10° SSE
NOSS 0 Rocket 4.4 04:06:31 39° WNW 04:07:03 39° NW 04:12:51 10° NNE
USA 267 3.3 04:00:38 10° NE 04:07:06 66° NNW 04:09:42 38° W
Cosmos 1437 Rocket 3.5 04:05:23 10° S 04:09:02 49° E 04:12:43 10° NNE
COSMO-SKYMED 1 4.4 04:07:42 10° SE 04:11:31 31° ENE 04:15:22 10° N
PSLV R/B 4.4 04:08:31 10° N 04:11:14 33° NNW 04:11:14 33° NNW
CZ-4B R/B 4.5 04:09:46 10° NNE 04:13:48 59° E 04:17:59 10° S
Okean 1-7 Rocket 3.6 04:09:52 10° S 04:14:19 81° E 04:18:51 10° N
Fregat R/B Cluster 11 4.2 04:13:34 52° WSW 04:14:26 74° NW 04:23:36 10° NE
Cosmos 2369 Rocket 3.7 04:10:02 10° NNW 04:15:10 35° NE 04:20:15 10° ESE
Cosmos 1726 Rocket 3.3 04:11:19 10° NNW 04:15:39 77° W 04:19:57 10° S
Cosmos 1908 4.3 04:13:47 10° N 04:17:29 44° ENE 04:21:08 10° SSE
Cosmos 1980 4.4 04:20:04 32° WNW 04:20:34 33° NW 04:25:39 10° N
Cosmos 2327 Rocket 4.4 04:14:33 10° SSW 04:20:40 59° W 04:26:45 10° N
Meteor 2-5 Rocket 4.5 04:15:32 10° S 04:21:12 58° E 04:27:01 10° NNE
Cosmos 676 Rocket 4.0 04:19:09 34° SW 04:21:16 57° WNW 04:26:26 10° NNE
IDEFIX/ARIANE 42P 3.0 04:18:29 10° N 04:23:21 40° WNW 04:24:24 36° W
PSLV R/B 4.2 04:24:33 29° SSE 04:24:33 29° SSE 04:26:31 10° ESE
Cosmos 2154 Rocket 3.9 04:20:59 10° SSW 04:27:06 65° W 04:33:18 10° N
Cosmos 407 Rocket 4.3 04:27:16 29° WNW 04:27:16 29° WNW 04:31:41 10° N
COSMOS 2428 4.4 04:29:57 15° NW 04:30:00 15° NW 04:33:17 10° N
Cosmos 1707 4.4 04:33:58 20° NW 04:33:58 20° NW 04:35:39 10° NNW
Cosmos 1943 Rocket 2.9 04:28:01 10° NNW 04:33:36 54° ENE 04:39:09 10° SE
Cosmos 1674 2.8 04:31:41 10° S 04:35:22 75° E 04:39:06 10° NNE
Meteor 1-31 Rocket 2.6 04:36:29 10° N 04:40:15 66° WNW 04:44:01 10° SSW
USA 234 3.3 04:34:40 10° SE 04:41:09 64° SW 04:46:43 15° WNW
SL-8 R/B 4.3 04:38:19 17° SW 04:41:49 55° SSE 04:46:30 10° ENE
Nadezhda 3 Rocket 4.2 04:36:47 10° NNW 04:42:51 48° W 04:48:51 10° SSW
Cosmos 44 Rocket 3.5 04:42:09 23° WNW 04:44:40 43° WSW 04:49:05 10° S
Cosmos 2058 Rocket 3.1 04:41:11 10° NNW 04:45:32 56° W 04:49:53 10° S
Cosmos 1626 4.3 04:46:22 10° SSE 04:49:35 29° E 04:52:51 10° NNE
Okean O Rocket 3.2 04:46:01 10° NNE 04:50:09 38° E 04:54:12 10° SSE
NOSS 3-4 (A) 4.4 04:47:28 21° WNW 04:50:28 31° NNW 04:56:12 10° NNE
NOSS 3-4 (C) 4.4 04:47:31 21° WNW 04:50:33 31° NNW 04:56:18 10° NNE
H-2A R/B 3.4 04:50:04 10° N 04:53:40 28° WNW 04:55:50 18° WSW
Cosmos 1484 Rocket 2.8 04:51:33 10° NNE 04:55:24 82° ESE 04:59:17 10° S
ATLAS 3B R/B 3.7 04:53:35 19° W 04:55:54 22° WSW 05:00:58 10° SSW
Cosmos 1603 4.2 04:52:47 10° S 04:58:18 62° ESE 05:03:55 10° NNE
SL-16 R/B 2.6 04:53:15 11° SW 04:58:22 43° WNW 05:03:47 10° NNE
Gblst 52 Del rocket 4.3 04:54:20 18° WNW 04:58:23 59° SW 05:04:14 10° SE
Cosmos 2341 Rocket 4.0 04:52:31 10° SSW 04:58:41 63° W 05:04:52 10° N
CZ-4B R/B 3.1 04:54:58 10° N 04:58:43 42° WNW 05:02:16 10° SW
SKYMED 2 3.5 04:55:06 10° SSE 04:59:26 85° WSW 05:03:49 10° NNW
Cosmos 1850 Rocket 3.9 04:55:03 10° SSW 05:00:12 66° WNW 05:05:22 10° NNE
CENTAUR R/B 4.2 04:58:32 14° WNW 05:03:12 23° WSW 05:09:31 10° SSW
Cosmos 1892 Rocket 4.3 05:00:41 10° SW 05:04:35 30° WNW 05:08:30 10° N
Cosmos 1300 3.6 05:01:15 10° N 05:05:00 51° ENE 05:08:42 10° SSE
Meteor 1-24 Rocket 3.8 05:02:35 10° SSW 05:08:24 83° W 05:14:26 10° N
Cosmos 1959 Rocket 4.4 05:04:05 10° S 05:10:12 85° W 05:16:27 10° N
SL-8 Rocket 3.9 05:07:20 10° SSW 05:13:27 67° W 05:19:36 10° N
Cosmos 468 Rocket 4.1 05:08:56 10° NNW 05:13:54 49° WSW 05:18:48 10° S
CZ-2C R/B 3.2 05:09:52 10° N 05:14:26 32° WNW 05:18:56 10° SW
Meteor PRIRODA 4.1 05:11:42 10° N 05:15:12 38° WNW 05:18:40 10° SW
USA 116 3.3 05:15:11 10° S 05:18:46 77° WSW 05:22:03 10° NNW
RESURS DK-1 4.0 05:19:32 12° W 05:21:39 17° NW 05:24:26 10° N
COBE Rocket 4.3 05:19:12 10° S 05:24:03 46° W 05:29:03 10° NNW
Cosmos 2366 rocket 4.0 05:17:57 10° SSW 05:24:17 71° W 05:30:39 10° N
Cosmos 1943 3.4 05:23:33 10° SSW 05:29:15 80° ESE 05:34:58 10° NNE
GP-B 4.1 05:26:40 10° SW 05:30:16 24° W 05:33:54 10° NNW
Cosmos 841 Rocket 3.5 05:25:30 10° NNW 05:30:48 79° WSW 05:36:02 10° SSE
SL-14 R/B 3.2 05:28:00 10° SSW 05:31:54 68° W 05:35:47 10° N
Helios 1A Rocket 2.9 05:27:53 10° N 05:32:02 66° WNW 05:36:08 10° SSW
ATLAS 2AS CENTAUR R/B 4.3 05:25:57 10° WNW 05:32:19 25° NNW 05:38:34 10° NNE
Cosmos 1570 Rocket 4.3 05:29:17 10° NNW 05:34:23 48° WSW 05:39:27 10° S
Cosmos 1812 Rocket 3.7 05:31:05 10° NNW 05:35:29 57° W 05:39:50 10° S
Cosmos 1626 Rocket 4.0 05:33:43 10° SW 05:37:44 37° WNW 05:41:48 10° N
Cosmos 1726 3.9 05:36:20 10° WNW 05:37:52 12° W 05:39:24 10° WSW
ISS -1.2 05:36:03 10° SSW 05:38:46 23° SE 05:41:30 10° E
